Radiation Dose at Monitoring Post of Fukushima Daini Nuclear Power Station
Date,Time,MP-1(microSv/h),MP-2(microSv/h),MP-3(microSv/h),MP-4(microSv/h),MP-5(microSv/h),MP-6(microSv/h),MP-7(microSv/h),Wind Direction,Wind Velocity(m/s),Rain
2020/01/26,00:00,0.182,0.161,0.275,0.255,0.252,0.139,0.086,north-northwest,3.9,No
2020/01/26,00:10,0.182,0.161,0.275,0.254,0.252,0.139,0.086,north-northwest,4.0,No
2020/01/26,00:20,0.182,0.162,0.274,0.255,0.251,0.139,0.086,north-northwest,3.7,No
2020/01/26,00:30,0.182,0.161,0.275,0.255,0.253,0.140,0.086,north-northwest,4.2,No
2020/01/26,00:40,0.182,0.162,0.274,0.254,0.252,0.138,0.085,north-northwest,4.6,No
2020/01/26,00:50,0.181,0.163,0.275,0.256,0.252,0.139,0.085,north-northwest,4.7,No
2020/01/26,01:00,0.181,0.162,0.273,0.255,0.253,0.140,0.086,north-northwest,5.3,No
2020/01/26,01:10,0.181,0.162,0.275,0.254,0.251,0.141,0.086,north-northwest,5.4,No
2020/01/26,01:20,0.182,0.162,0.274,0.255,0.252,0.139,0.086,north-northwest,5.1,No
2020/01/26,01:30,0.181,0.162,0.275,0.255,0.253,0.140,0.086,north-northwest,5.0,No
2020/01/26,01:40,0.181,0.162,0.275,0.255,0.252,0.139,0.085,north-northwest,4.8,No
2020/01/26,01:50,0.181,0.162,0.275,0.256,0.254,0.140,0.086,north-northwest,4.3,No
2020/01/26,02:00,0.181,0.162,0.275,0.256,0.253,0.139,0.086,north-northwest,3.1,No
2020/01/26,02:10,0.181,0.161,0.275,0.255,0.252,0.140,0.087,north-northwest,2.4,No
2020/01/26,02:20,0.182,0.162,0.275,0.256,0.252,0.140,0.086,north-northwest,2.1,No
2020/01/26,02:30,0.181,0.163,0.274,0.254,0.253,0.140,0.085,north,2.0,No
2020/01/26,02:40,0.181,0.163,0.275,0.255,0.252,0.140,0.087,north-northwest,2.8,No
2020/01/26,02:50,0.182,0.162,0.275,0.256,0.252,0.140,0.086,north,2.2,No
2020/01/26,03:00,0.181,0.162,0.274,0.256,0.252,0.140,0.086,north,1.5,No
2020/01/26,03:10,0.181,0.163,0.275,0.255,0.252,0.139,0.086,north,1.9,No
2020/01/26,03:20,0.182,0.162,0.274,0.255,0.253,0.140,0.086,north-northwest,3.1,No
2020/01/26,03:30,0.182,0.163,0.274,0.256,0.252,0.139,0.087,north-northwest,3.9,No
2020/01/26,03:40,0.183,0.162,0.275,0.254,0.252,0.140,0.087,north-northwest,4.3,No
2020/01/26,03:50,0.182,0.161,0.276,0.255,0.251,0.139,0.086,north-northwest,3.2,No
2020/01/26,04:00,0.182,0.162,0.274,0.256,0.253,0.139,0.086,north-northwest,2.8,No
2020/01/26,04:10,0.182,0.164,0.276,0.256,0.253,0.139,0.086,north-northwest,2.5,No
2020/01/26,04:20,0.182,0.162,0.275,0.256,0.253,0.139,0.087,north-northwest,2.7,No
2020/01/26,04:30,0.181,0.162,0.274,0.255,0.252,0.140,0.085,north-northwest,2.4,No
2020/01/26,04:40,0.182,0.162,0.275,0.254,0.252,0.140,0.086,north,2.5,No
2020/01/26,04:50,0.181,0.163,0.275,0.254,0.252,0.140,0.085,north-northeast,2.5,No
2020/01/26,05:00,0.182,0.162,0.275,0.255,0.253,0.140,0.087,north,3.0,No
2020/01/26,05:10,0.181,0.162,0.276,0.254,0.253,0.140,0.086,north-northwest,1.4,No
2020/01/26,05:20,0.182,0.162,0.276,0.255,0.252,0.139,0.086,north-northwest,1.8,No
2020/01/26,05:30,0.181,0.163,0.275,0.255,0.252,0.140,0.086,north-northwest,2.3,No
2020/01/26,05:40,0.183,0.163,0.275,0.256,0.253,0.140,0.086,northwest,2.0,No
2020/01/26,05:50,0.181,0.162,0.275,0.255,0.253,0.140,0.086,north,2.9,No
2020/01/26,06:00,0.182,0.162,0.275,0.255,0.252,0.140,0.085,north,4.5,No
2020/01/26,06:10,0.182,0.163,0.275,0.255,0.253,0.139,0.086,north-northwest,4.4,No
2020/01/26,06:20,0.181,0.164,0.275,0.255,0.254,0.139,0.086,north-northwest,4.2,No
2020/01/26,06:30,0.181,0.162,0.275,0.255,0.252,0.140,0.086,north,3.9,No
2020/01/26,06:40,0.182,0.161,0.276,0.254,0.251,0.141,0.086,north-northwest,2.1,No
2020/01/26,06:50,0.182,0.163,0.275,0.256,0.252,0.141,0.085,northwest,0.7,No
2020/01/26,07:00,0.181,0.162,0.275,0.256,0.252,0.140,0.086,west-northwest,1.6,No
2020/01/26,07:10,0.183,0.163,0.275,0.255,0.253,0.141,0.085,northwest,1.3,No
2020/01/26,07:20,0.182,0.162,0.276,0.256,0.252,0.139,0.086,north,3.2,No
2020/01/26,07:30,0.182,0.163,0.274,0.255,0.253,0.140,0.086,north,4.2,No
2020/01/26,07:40,0.183,0.163,0.275,0.255,0.252,0.140,0.086,north,2.5,No
2020/01/26,07:50,0.181,0.163,0.275,0.256,0.252,0.140,0.086,north,3.1,No
2020/01/26,08:00,0.182,0.163,0.275,0.256,0.253,0.139,0.086,north-northwest,4.2,No
2020/01/26,08:10,0.182,0.163,0.276,0.256,0.253,0.140,0.086,north-northwest,4.2,No
2020/01/26,08:20,0.183,0.163,0.275,0.256,0.254,0.139,0.086,north,3.9,No
2020/01/26,08:30,0.183,0.163,0.275,0.255,0.254,0.140,0.086,north-northwest,4.0,No
2020/01/26,08:40,0.182,0.163,0.275,0.255,0.252,0.140,0.086,north-northwest,4.3,No
2020/01/26,08:50,0.182,0.162,0.275,0.256,0.252,0.141,0.086,north-northwest,4.6,No
2020/01/26,09:00,0.183,0.162,0.274,0.254,0.253,0.140,0.087,north-northwest,4.5,No
2020/01/26,09:10,0.183,0.163,0.275,0.255,0.254,0.139,0.087,north-northwest,4.4,No
2020/01/26,09:20,0.182,0.163,0.275,0.255,0.253,0.140,0.087,north-northwest,3.7,No
2020/01/26,09:30,0.181,0.163,0.276,0.256,0.253,0.140,0.087,north-northwest,3.8,No
2020/01/26,09:40,0.182,0.162,0.276,0.255,0.252,0.140,0.086,north-northwest,2.9,No
2020/01/26,09:50,0.182,0.162,0.275,0.254,0.253,0.139,0.086,northwest,2.6,No
2020/01/26,10:00,0.182,0.162,0.275,0.255,0.251,0.139,0.086,north-northwest,2.1,No
2020/01/26,10:10,0.182,0.162,0.275,0.253,0.252,0.141,0.086,north-northwest,1.6,No
2020/01/26,10:20,0.182,0.162,0.275,0.255,0.253,0.141,0.085,north-northeast,3.2,No
2020/01/26,10:30,0.181,0.163,0.274,0.256,0.253,0.140,0.086,north,2.7,No
2020/01/26,10:40,0.181,0.161,0.275,0.255,0.253,0.140,0.086,north-northeast,2.2,No
2020/01/26,10:50,0.181,0.162,0.275,0.253,0.254,0.138,0.086,north-northeast,1.7,No
2020/01/26,11:00,0.182,0.162,0.275,0.255,0.252,0.140,0.086,northeast,2.4,No
2020/01/26,11:10,0.181,0.162,0.274,0.256,0.254,0.140,0.085,north-northeast,2.1,No
2020/01/26,11:20,0.182,0.162,0.276,0.254,0.251,0.140,0.086,northeast,2.3,No
2020/01/26,11:30,0.180,0.161,0.275,0.254,0.252,0.139,0.085,northeast,2.4,No
2020/01/26,11:40,0.181,0.161,0.274,0.254,0.252,0.140,0.086,east-northeast,2.7,No
2020/01/26,11:50,0.181,0.162,0.276,0.254,0.251,0.140,0.085,northeast,2.7,No
2020/01/26,12:00,0.181,0.162,0.275,0.255,0.253,0.140,0.086,northeast,2.7,No
2020/01/26,12:10,0.181,0.162,0.275,0.254,0.253,0.141,0.086,east-northeast,2.3,No
2020/01/26,12:20,0.181,0.163,0.275,0.256,0.255,0.140,0.086,east-northeast,2.1,No
2020/01/26,12:30,0.181,0.162,0.274,0.254,0.251,0.140,0.087,northeast,3.3,No
2020/01/26,12:40,0.180,0.163,0.274,0.256,0.253,0.140,0.086,northeast,3.0,No
2020/01/26,12:50,0.181,0.162,0.274,0.255,0.252,0.140,0.085,east-northeast,2.1,No
2020/01/26,13:00,0.181,0.161,0.272,0.256,0.253,0.140,0.086,northeast,2.5,No
2020/01/26,13:10,0.181,0.163,0.275,0.254,0.253,0.140,0.086,east-northeast,3.4,No
2020/01/26,13:20,0.181,0.162,0.274,0.256,0.252,0.140,0.086,northeast,3.8,No
2020/01/26,13:30,0.181,0.162,0.275,0.254,0.254,0.140,0.086,northeast,3.6,No
2020/01/26,13:40,0.181,0.163,0.276,0.255,0.253,0.139,0.086,east-northeast,2.4,No
2020/01/26,13:50,0.181,0.161,0.275,0.253,0.252,0.141,0.086,northeast,2.1,No
2020/01/26,14:00,0.182,0.162,0.273,0.255,0.253,0.140,0.086,northeast,2.4,No
2020/01/26,14:10,0.181,0.162,0.276,0.253,0.251,0.140,0.085,northeast,2.6,No
2020/01/26,14:20,0.181,0.162,0.274,0.255,0.253,0.140,0.086,northeast,1.8,No
2020/01/26,14:30,0.182,0.162,0.275,0.255,0.251,0.140,0.085,northeast,1.8,No
2020/01/26,14:40,0.181,0.162,0.277,0.256,0.253,0.139,0.086,northeast,2.6,No
2020/01/26,14:50,0.182,0.162,0.276,0.256,0.255,0.139,0.086,northeast,1.5,No
2020/01/26,15:00,0.182,0.162,0.275,0.254,0.253,0.139,0.085,northeast,1.8,No
2020/01/26,15:10,0.182,0.162,0.276,0.255,0.254,0.140,0.085,east-northeast,1.5,No
2020/01/26,15:20,0.180,0.162,0.276,0.257,0.255,0.140,0.085,east,1.3,No
2020/01/26,15:30,0.182,0.162,0.274,0.256,0.253,0.140,0.086,east-northeast,1.5,No
2020/01/26,15:40,0.181,0.162,0.274,0.255,0.254,0.140,0.086,east,1.9,No
2020/01/26,15:50,0.181,0.161,0.275,0.256,0.253,0.140,0.085,east-northeast,2.0,No
2020/01/26,16:00,0.182,0.162,0.275,0.256,0.252,0.140,0.086,northeast,1.3,No
2020/01/26,16:10,0.181,0.162,0.274,0.256,0.253,0.140,0.085,north-northeast,0.8,No
2020/01/26,16:20,0.182,0.162,0.277,0.254,0.253,0.139,0.086,east-northeast,1.1,No
2020/01/26,16:30,0.182,0.162,0.277,0.256,0.253,0.140,0.085,northeast,0.7,No
2020/01/26,16:40,0.182,0.162,0.274,0.256,0.253,0.140,0.086,northeast,1.0,No
2020/01/26,16:50,0.182,0.163,0.275,0.256,0.253,0.140,0.085,north-northeast,1.2,No
2020/01/26,17:00,0.182,0.162,0.276,0.255,0.253,0.139,0.085,north-northeast,1.9,No
2020/01/26,17:10,0.182,0.163,0.275,0.256,0.252,0.139,0.085,north-northeast,2.9,No
2020/01/26,17:20,0.181,0.162,0.275,0.256,0.253,0.140,0.086,northeast,1.6,No
2020/01/26,17:30,0.181,0.162,0.275,0.255,0.254,0.139,0.086,north,2.1,No
2020/01/26,17:40,0.182,0.161,0.276,0.256,0.252,0.140,0.086,north-northwest,2.6,No
2020/01/26,17:50,0.183,0.163,0.275,0.256,0.252,0.140,0.086,north-northwest,3.6,No
2020/01/26,18:00,0.181,0.162,0.276,0.256,0.254,0.140,0.086,north-northwest,3.4,No
2020/01/26,18:10,0.182,0.162,0.274,0.255,0.254,0.140,0.086,north-northwest,3.2,No
2020/01/26,18:20,0.182,0.162,0.276,0.255,0.251,0.140,0.086,north-northwest,3.7,No
2020/01/26,18:30,0.182,0.161,0.276,0.257,0.252,0.140,0.086,north-northwest,4.1,No
2020/01/26,18:40,0.182,0.163,0.276,0.256,0.253,0.140,0.086,north-northwest,3.8,No
2020/01/26,18:50,0.181,0.162,0.275,0.256,0.253,0.140,0.085,north-northwest,4.2,No
2020/01/26,19:00,0.181,0.162,0.275,0.256,0.253,0.140,0.086,north-northwest,4.7,No
2020/01/26,19:10,0.183,0.161,0.276,0.255,0.252,0.139,0.086,north-northwest,4.3,No
2020/01/26,19:20,0.181,0.162,0.276,0.256,0.253,0.140,0.086,north-northwest,3.5,No
2020/01/26,19:30,0.182,0.162,0.275,0.257,0.254,0.140,0.087,north-northwest,3.1,No
2020/01/26,19:40,0.181,0.162,0.276,0.257,0.252,0.141,0.086,northwest,2.7,No
2020/01/26,19:50,0.182,0.162,0.277,0.256,0.253,0.140,0.086,northwest,2.7,No
2020/01/26,20:00,0.181,0.164,0.275,0.256,0.252,0.141,0.087,northwest,2.5,No
2020/01/26,20:10,0.182,0.163,0.274,0.255,0.253,0.140,0.086,northwest,3.2,No
2020/01/26,20:20,0.182,0.162,0.275,0.256,0.254,0.140,0.086,northwest,3.3,No
2020/01/26,20:30,0.182,0.162,0.274,0.256,0.253,0.141,0.086,west-northwest,3.7,No
2020/01/26,20:40,0.182,0.162,0.276,0.255,0.252,0.140,0.086,west,3.8,No
2020/01/26,20:50,0.182,0.162,0.276,0.256,0.252,0.140,0.086,west,3.5,No
2020/01/26,21:00,0.182,0.163,0.275,0.256,0.252,0.139,0.085,west-southwest,3.2,No
2020/01/26,21:10,0.182,0.162,0.276,0.256,0.255,0.140,0.086,west-southwest,3.1,No
2020/01/26,21:20,0.182,0.162,0.276,0.256,0.253,0.140,0.086,west-southwest,4.0,No
2020/01/26,21:30,0.182,0.162,0.276,0.257,0.253,0.140,0.086,west-southwest,3.7,No
2020/01/26,21:40,0.181,0.162,0.275,0.256,0.252,0.140,0.085,west-southwest,2.2,No
2020/01/26,21:50,0.182,0.163,0.276,0.257,0.253,0.141,0.086,west-southwest,3.0,No
2020/01/26,22:00,0.182,0.162,0.275,0.256,0.253,0.141,0.086,west,3.2,No
2020/01/26,22:10,0.183,0.163,0.275,0.257,0.252,0.141,0.086,west-southwest,1.8,No
2020/01/26,22:20,0.182,0.163,0.277,0.256,0.252,0.139,0.086,west,0.9,No
2020/01/26,22:30,0.183,0.162,0.276,0.257,0.252,0.140,0.085,north,1.3,No
2020/01/26,22:40,0.182,0.163,0.276,0.257,0.254,0.140,0.087,northwest,1.4,No
2020/01/26,22:50,0.182,0.162,0.276,0.256,0.254,0.140,0.086,north-northwest,1.4,No
2020/01/26,23:00,0.182,0.163,0.275,0.257,0.253,0.140,0.086,northwest,1.5,No
2020/01/26,23:10,0.181,0.162,0.276,0.256,0.254,0.140,0.086,west-northwest,3.0,No
2020/01/26,23:20,0.182,0.162,0.276,0.255,0.253,0.140,0.087,west-northwest,2.4,No
2020/01/26,23:30,0.182,0.163,0.276,0.256,0.254,0.140,0.087,west-northwest,4.1,No
2020/01/26,23:40,0.182,0.163,0.276,0.255,0.253,0.140,0.086,west,3.8,No
2020/01/26,23:50,0.182,0.162,0.275,0.256,0.253,0.140,0.086,west,3.5,No
